Location: Asarope
(8.2500°N, 4.4833°E)
Time: 14:21:44
(UTC+00:00)

ARIANE 5 R/B - Pass Details

Date: 07 June 2020
Orbit: 283 x 31944 km, 1.4° (Epoch: 07 July)

Event Time Altitude Azimuth Distance (km) Brightness Sun altitude
Rises 19:48:15 0° 266° (W) 14,237 9.8 -25.2°
Reaches altitude 10° 19:59:22 10° 265° (W) 15,826 9.8 -27.6°
Drops below altitude 10° 02:26:17 10° 268° (W) 26,902 9.9 -39.0°
Maximum altitude 04:11:39 57° 194° (SSW) 2,113 4.5 -16.9°
Sets 04:18:27 0° 108° (ESE) 3,001 6.3 -15.4°
